Private Wetterstation Wechselburg
Wetterdaten: Mittwoch, 18.05.2011
Datum Zeit Temp. +2m Bodentemp. Temp.+5cm Temp. Wind Windchill X Diff Temp. Feuchte +2m Feuchte +5cm Sonnenschein Luftdruck Regen Wind Richtung Richtung Sonnenschein UV Taupunkt Windchill Windben
18.05.2011 00:00 14,4 C 17,5 C 16,5 C 13,9 C 12,8 C 0,0 C 85 % 76 % 0 % 1020,2 hPa 0,0 l/m 0,0 km/h (0 Bft) O 90 0 min 0,0 UV-I 11,9 C 12,8 C 0,0 km/h (0 Bft)
18.05.2011 00:10 14,3 C 17,4 C 16,5 C 13,8 C 12,8 C 0,0 C 86 % 76 % 0 % 1020,2 hPa 0,0 l/m 0,0 km/h (0 Bft) N 0 0 min 0,0 UV-I 12,0 C 12,8 C 0,0 km/h (0 Bft)
18.05.2011 00:15 14,3 C 17,4 C 16,5 C 13,8 C 12,8 C 0,0 C 86 % 76 % 0 % 1019,4 hPa 0,0 l/m 0,0 km/h (0 Bft) O 90 0 min 0,0 UV-I 12,0 C 12,8 C 0,0 km/h (0 Bft)
18.05.2011 00:20 14,3 C 17,4 C 16,5 C 13,8 C 12,7 C 0,0 C 86 % 76 % 0 % 1019,4 hPa 0,0 l/m 0,0 km/h (0 Bft) O 90 0 min 0,0 UV-I 12,0 C 12,7 C 0,0 km/h (0 Bft)
18.05.2011 00:25 14,3 C 17,4 C 16,5 C 13,8 C 12,7 C 0,0 C 86 % 76 % 0 % 1019,4 hPa 0,0 l/m 0,0 km/h (0 Bft) S-SO 157 0 min 0,0 UV-I 12,0 C 12,7 C 0,0 km/h (0 Bft)
18.05.2011 00:30 14,3 C 17,4 C 16,5 C 13,7 C 12,6 C 0,0 C 86 % 76 % 0 % 1019,4 hPa 0,7 l/m 0,0 km/h (0 Bft) S-SO 157 0 min 0,0 UV-I 12,0 C 12,6 C 0,0 km/h (0 Bft)
18.05.2011 00:35 14,2 C 17,4 C 16,5 C 13,7 C 12,6 C 0,0 C 86 % 76 % 0 % 1019,5 hPa 0,0 l/m 0,0 km/h (0 Bft) NO 45 0 min 0,0 UV-I 11,9 C 12,6 C 0,0 km/h (0 Bft)
18.05.2011 00:40 14,2 C 17,4 C 16,5 C 13,7 C 12,6 C 0,0 C 86 % 76 % 0 % 1019,5 hPa 0,0 l/m 0,0 km/h (0 Bft) SW 225 0 min 0,0 UV-I 11,9 C 12,6 C 0,0 km/h (0 Bft)
18.05.2011 00:45 14,3 C 17,4 C 16,5 C 13,7 C 12,6 C 0,0 C 86 % 76 % 0 % 1019,5 hPa 0,0 l/m 0,0 km/h (0 Bft) S-SW 202 0 min 0,0 UV-I 12,0 C 12,6 C 0,0 km/h (0 Bft)
18.05.2011 00:50 14,3 C 17,4 C 16,5 C 13,7 C 12,5 C 0,0 C 86 % 76 % 0 % 1019,5 hPa 0,0 l/m 0,0 km/h (0 Bft) SW 225 0 min 0,0 UV-I 12,0 C 12,5 C 0,0 km/h (0 Bft)
18.05.2011 00:55 14,3 C 17,3 C 16,5 C 13,7 C 12,4 C 0,0 C 86 % 76 % 0 % 1019,6 hPa 0,0 l/m 0,0 km/h (0 Bft) S 180 0 min 0,0 UV-I 12,0 C 12,4 C 0,0 km/h (0 Bft)
18.05.2011 01:00 14,2 C 17,3 C 16,5 C 13,6 C 12,4 C 0,0 C 86 % 76 % 0 % 1019,6 hPa 0,0 l/m 0,0 km/h (0 Bft) S-SW 202 0 min 0,0 UV-I 11,9 C 12,4 C 0,0 km/h (0 Bft)
18.05.2011 01:10 14,1 C 17,4 C 16,5 C 13,5 C 12,2 C 0,0 C 86 % 76 % 0 % 1019,6 hPa 0,0 l/m 0,0 km/h (0 Bft) N 0 0 min 0,0 UV-I 11,8 C 12,2 C 0,0 km/h (0 Bft)
18.05.2011 01:15 14,1 C 17,3 C 16,5 C 13,4 C 12,1 C 0,0 C 86 % 76 % 0 % 1019,4 hPa 0,0 l/m 0,0 km/h (0 Bft) S-SW 202 0 min 0,0 UV-I 11,8 C 12,1 C 0,0 km/h (0 Bft)
18.05.2011 01:20 14,0 C 17,3 C 16,5 C 13,3 C 11,9 C 0,0 C 86 % 76 % 0 % 1019,4 hPa 0,0 l/m 0,0 km/h (0 Bft) W-SW 247 0 min 0,0 UV-I 11,7 C 11,9 C 0,0 km/h (0 Bft)
18.05.2011 01:25 13,9 C 17,2 C 16,5 C 13,2 C 11,7 C 0,0 C 86 % 76 % 0 % 1019,4 hPa 0,0 l/m 0,0 km/h (0 Bft) W-SW 247 0 min 0,0 UV-I 11,6 C 11,7 C 0,0 km/h (0 Bft)
18.05.2011 01:30 13,8 C 17,3 C 16,5 C 13,0 C 11,5 C 0,0 C 86 % 76 % 0 % 1019,4 hPa 0,0 l/m 0,2 km/h (0 Bft) S 180 0 min 0,0 UV-I 11,5 C 11,5 C 0,0 km/h (0 Bft)
18.05.2011 01:35 13,6 C 17,4 C 16,5 C 12,9 C 11,4 C 0,0 C 85 % 76 % 0 % 1019,2 hPa 0,0 l/m 0,2 km/h (0 Bft) S-SW 202 0 min 0,0 UV-I 11,1 C 11,4 C 0,0 km/h (0 Bft)
18.05.2011 01:40 13,5 C 17,4 C 16,5 C 12,8 C 11,3 C 0,0 C 86 % 76 % 0 % 1019,2 hPa 0,0 l/m 0,2 km/h (0 Bft) S-SO 157 0 min 0,0 UV-I 11,2 C 11,3 C 0,0 km/h (0 Bft)
18.05.2011 01:45 13,4 C 17,4 C 16,5 C 12,6 C 11,1 C 0,0 C 86 % 76 % 0 % 1019,2 hPa 0,0 l/m 0,0 km/h (0 Bft) S-SO 157 0 min 0,0 UV-I 11,1 C 11,1 C 0,0 km/h (0 Bft)
18.05.2011 01:50 13,3 C 17,4 C 16,5 C 12,6 C 11,1 C 0,0 C 85 % 76 % 0 % 1019,2 hPa 0,0 l/m 0,0 km/h (0 Bft) S-SO 157 0 min 0,0 UV-I 10,8 C 11,1 C 0,0 km/h (0 Bft)
18.05.2011 01:55 13,2 C 17,4 C 16,5 C 12,5 C 11,0 C 0,0 C 86 % 76 % 0 % 1019,1 hPa 0,0 l/m 0,0 km/h (0 Bft) S 180 0 min 0,0 UV-I 10,9 C 11,0 C 0,0 km/h (0 Bft)
18.05.2011 02:00 13,2 C 17,4 C 16,5 C 12,4 C 10,8 C 0,0 C 86 % 76 % 0 % 1019,1 hPa 0,0 l/m 0,0 km/h (0 Bft) S 180 0 min 0,0 UV-I 10,9 C 10,8 C 0,0 km/h (0 Bft)
18.05.2011 02:10 13,1 C 17,4 C 16,5 C 12,2 C 10,5 C 0,0 C 85 % 76 % 0 % 1019,1 hPa 0,0 l/m 0,0 km/h (0 Bft) N 0 0 min 0,0 UV-I 10,6 C 10,5 C 0,0 km/h (0 Bft)
18.05.2011 02:15 13,1 C 17,3 C 16,5 C 12,2 C 10,3 C 0,0 C 85 % 76 % 0 % 1018,9 hPa 0,0 l/m 0,0 km/h (0 Bft) S-SW 202 0 min 0,0 UV-I 10,6 C 10,3 C 0,0 km/h (0 Bft)
18.05.2011 02:20 12,9 C 17,3 C 16,5 C 12,0 C 10,3 C 0,0 C 86 % 76 % 0 % 1018,9 hPa 0,0 l/m 0,0 km/h (0 Bft) S-SW 202 0 min 0,0 UV-I 10,6 C 10,3 C 0,0 km/h (0 Bft)
18.05.2011 02:25 12,9 C 17,3 C 16,5 C 12,0 C 10,1 C 0,0 C 85 % 76 % 0 % 1018,9 hPa 0,0 l/m 0,0 km/h (0 Bft) S-SW 202 0 min 0,0 UV-I 10,4 C 10,1 C 0,0 km/h (0 Bft)
18.05.2011 02:30 12,9 C 17,3 C 16,5 C 12,0 C 10,1 C 0,0 C 86 % 76 % 0 % 1018,9 hPa 0,0 l/m 0,0 km/h (0 Bft) O-SO 112 0 min 0,0 UV-I 10,6 C 10,1 C 0,0 km/h (0 Bft)
18.05.2011 02:35 12,7 C 17,3 C 16,5 C 11,8 C 10,1 C 0,0 C 85 % 76 % 0 % 1018,6 hPa 0,0 l/m 0,0 km/h (0 Bft) O-SO 112 0 min 0,0 UV-I 10,2 C 10,1 C 0,0 km/h (0 Bft)
18.05.2011 02:40 12,7 C 17,3 C 16,5 C 11,8 C 10,0 C 0,0 C 85 % 76 % 0 % 1018,6 hPa 0,0 l/m 0,0 km/h (0 Bft) O-SO 112 0 min 0,0 UV-I 10,2 C 10,0 C 0,0 km/h (0 Bft)
18.05.2011 02:45 12,6 C 17,3 C 16,5 C 11,7 C 9,9 C 0,0 C 85 % 76 % 0 % 1018,6 hPa 0,0 l/m 0,0 km/h (0 Bft) S 180 0 min 0,0 UV-I 10,1 C 9,9 C 0,0 km/h (0 Bft)
18.05.2011 02:50 12,7 C 17,3 C 16,5 C 11,8 C 9,9 C 0,0 C 85 % 76 % 0 % 1018,6 hPa 0,0 l/m 0,0 km/h (0 Bft) SW 225 0 min 0,0 UV-I 10,2 C 9,9 C 0,0 km/h (0 Bft)
18.05.2011 02:55 12,5 C 17,3 C 16,5 C 11,6 C 9,8 C 0,0 C 85 % 76 % 0 % 1018,7 hPa 0,0 l/m 0,0 km/h (0 Bft) SW 225 0 min 0,0 UV-I 10,0 C 9,8 C 0,0 km/h (0 Bft)
18.05.2011 03:00 12,5 C 17,2 C 16,5 C 11,6 C 9,7 C 0,0 C 85 % 76 % 0 % 1018,7 hPa 0,0 l/m 0,0 km/h (0 Bft) S 180 0 min 0,0 UV-I 10,0 C 9,7 C 0,0 km/h (0 Bft)
18.05.2011 03:10 12,2 C 17,2 C 16,5 C 11,3 C 9,6 C 0,0 C 85 % 76 % 0 % 1018,7 hPa 0,0 l/m 0,0 km/h (0 Bft) N 0 0 min 0,0 UV-I 9,8 C 9,6 C 0,0 km/h (0 Bft)
18.05.2011 03:15 12,3 C 17,2 C 16,5 C 11,3 C 9,4 C 0,0 C 86 % 76 % 0 % 1018,7 hPa 0,0 l/m 0,2 km/h (0 Bft) SW 225 0 min 0,0 UV-I 10,0 C 9,4 C 0,0 km/h (0 Bft)
18.05.2011 03:20 12,3 C 17,1 C 16,5 C 11,3 C 9,4 C 0,0 C 86 % 76 % 0 % 1018,7 hPa 0,0 l/m 0,2 km/h (0 Bft) SW 225 0 min 0,0 UV-I 10,0 C 9,4 C 0,0 km/h (0 Bft)
18.05.2011 03:25 12,1 C 17,2 C 16,5 C 11,1 C 9,2 C 0,0 C 85 % 76 % 0 % 1018,7 hPa 0,0 l/m 0,0 km/h (0 Bft) SW 225 0 min 0,0 UV-I 9,7 C 9,2 C 0,0 km/h (0 Bft)
18.05.2011 03:30 12,0 C 17,2 C 16,5 C 11,1 C 9,2 C 0,0 C 85 % 76 % 0 % 1018,7 hPa 0,0 l/m 0,0 km/h (0 Bft) SW 225 0 min 0,0 UV-I 9,6 C 9,2 C 0,0 km/h (0 Bft)
18.05.2011 03:35 11,9 C 17,2 C 16,5 C 10,9 C 8,9 C 0,0 C 85 % 76 % 0 % 1018,6 hPa 0,0 l/m 0,0 km/h (0 Bft) SW 225 0 min 0,0 UV-I 9,5 C 8,9 C 0,0 km/h (0 Bft)
18.05.2011 03:40 11,9 C 17,1 C 16,5 C 10,9 C 8,9 C 0,0 C 85 % 76 % 0 % 1018,6 hPa 0,0 l/m 0,0 km/h (0 Bft) SW 225 0 min 0,0 UV-I 9,5 C 8,9 C 0,0 km/h (0 Bft)
18.05.2011 03:45 11,7 C 17,1 C 16,5 C 10,7 C 8,6 C 0,0 C 85 % 76 % 0 % 1018,6 hPa 0,0 l/m 0,0 km/h (0 Bft) SW 225 0 min 0,0 UV-I 9,3 C 8,6 C 0,0 km/h (0 Bft)
18.05.2011 03:50 11,7 C 17,0 C 16,5 C 10,6 C 8,4 C 0,0 C 85 % 76 % 0 % 1018,6 hPa 0,0 l/m 0,0 km/h (0 Bft) SW 225 0 min 0,0 UV-I 9,3 C 8,4 C 0,0 km/h (0 Bft)
18.05.2011 03:55 11,6 C 17,0 C 16,5 C 10,5 C 8,4 C 0,0 C 85 % 76 % 0 % 1018,7 hPa 0,0 l/m 0,0 km/h (0 Bft) SW 225 0 min 0,0 UV-I 9,2 C 8,4 C 0,0 km/h (0 Bft)
18.05.2011 04:00 11,6 C 17,1 C 16,5 C 10,5 C 8,4 C 0,0 C 84 % 76 % 0 % 1018,7 hPa 0,0 l/m 0,0 km/h (0 Bft) SW 225 0 min 0,0 UV-I 9,0 C 8,4 C 0,0 km/h (0 Bft)
18.05.2011 04:10 11,5 C 17,0 C 16,5 C 10,4 C 8,2 C 0,0 C 85 % 76 % 0 % 1018,7 hPa 0,0 l/m 0,0 km/h (0 Bft) N 0 0 min 0,0 UV-I 9,1 C 8,2 C 0,0 km/h (0 Bft)
18.05.2011 04:15 11,5 C 17,0 C 16,5 C 10,4 C 8,1 C 0,0 C 85 % 76 % 0 % 1018,8 hPa 0,0 l/m 0,0 km/h (0 Bft) SW 225 0 min 0,0 UV-I 9,1 C 8,1 C 0,0 km/h (0 Bft)
18.05.2011 04:20 11,2 C 17,0 C 16,5 C 10,2 C 8,1 C 0,0 C 85 % 76 % 0 % 1018,8 hPa 0,0 l/m 0,0 km/h (0 Bft) SW 225 0 min 0,0 UV-I 8,8 C 8,1 C 0,0 km/h (0 Bft)
18.05.2011 04:25 11,3 C 17,0 C 16,5 C 10,3 C 8,2 C 0,0 C 85 % 76 % 0 % 1018,8 hPa 0,0 l/m 0,0 km/h (0 Bft) SW 225 0 min 0,0 UV-I 8,9 C 8,2 C 0,0 km/h (0 Bft)
18.05.2011 04:30 11,2 C 17,0 C 16,5 C 10,2 C 8,2 C 0,0 C 85 % 76 % 0 % 1018,8 hPa 0,0 l/m 0,0 km/h (0 Bft) SW 225 0 min 0,0 UV-I 8,8 C 8,2 C 0,0 km/h (0 Bft)
18.05.2011 04:35 11,1 C 17,0 C 16,5 C 10,1 C 8,2 C 0,0 C 85 % 76 % 0 % 1018,6 hPa 0,0 l/m 0,0 km/h (0 Bft) SW 225 0 min 0,0 UV-I 8,7 C 8,2 C 0,0 km/h (0 Bft)
18.05.2011 04:40 11,2 C 17,0 C 16,5 C 10,2 C 8,2 C 0,0 C 85 % 76 % 0 % 1018,6 hPa 0,0 l/m 0,0 km/h (0 Bft) SW 225 0 min 0,0 UV-I 8,8 C 8,2 C 0,0 km/h (0 Bft)
18.05.2011 04:45 11,2 C 17,0 C 16,5 C 10,2 C 8,3 C 0,0 C 85 % 76 % 0 % 1018,6 hPa 0,0 l/m 0,0 km/h (0 Bft) SW 225 0 min 0,0 UV-I 8,8 C 8,3 C 0,0 km/h (0 Bft)
18.05.2011 04:50 11,2 C 16,9 C 16,5 C 10,2 C 8,3 C 0,0 C 86 % 76 % 0 % 1018,6 hPa 0,0 l/m 0,2 km/h (0 Bft) SW 225 0 min 0,0 UV-I 8,9 C 8,3 C 1,9 km/h (1 Bft)
18.05.2011 04:55 11,2 C 17,0 C 16,5 C 10,2 C 8,3 C 0,0 C 86 % 76 % 0 % 1018,5 hPa 0,0 l/m 0,5 km/h (0 Bft) SW 225 0 min 0,0 UV-I 8,9 C 8,3 C 0,0 km/h (0 Bft)
18.05.2011 05:00 11,1 C 17,0 C 16,5 C 10,2 C 8,3 C 0,0 C 85 % 76 % 0 % 1018,5 hPa 0,0 l/m 0,3 km/h (0 Bft) S-SO 157 0 min 0,0 UV-I 8,7 C 8,3 C 0,0 km/h (0 Bft)
18.05.2011 05:10 10,4 C 16,9 C 16,5 C 9,7 C 8,2 C 0,0 C 85 % 76 % 0 % 1018,5 hPa 0,0 l/m 0,0 km/h (0 Bft) N 0 0 min 0,0 UV-I 8,0 C 8,2 C 0,0 km/h (0 Bft)
18.05.2011 05:15 10,5 C 16,9 C 16,5 C 9,7 C 8,1 C 0,0 C 86 % 76 % 0 % 1018,7 hPa 0,0 l/m 0,0 km/h (0 Bft) S-SO 157 0 min 0,0 UV-I 8,3 C 8,1 C 0,0 km/h (0 Bft)
18.05.2011 05:20 10,4 C 16,9 C 16,5 C 9,7 C 8,2 C 0,0 C 86 % 76 % 0 % 1018,7 hPa 0,0 l/m 0,0 km/h (0 Bft) S-SO 157 0 min 0,0 UV-I 8,2 C 8,2 C 0,0 km/h (0 Bft)
18.05.2011 05:25 10,7 C 16,8 C 16,5 C 9,8 C 8,0 C 0,0 C 87 % 76 % 0 % 1018,7 hPa 0,0 l/m 0,2 km/h (0 Bft) SW 225 0 min 0,0 UV-I 8,6 C 8,0 C 1,8 km/h (1 Bft)
18.05.2011 05:30 10,7 C 16,8 C 16,5 C 9,8 C 7,9 C 0,0 C 86 % 76 % 0 % 1018,7 hPa 0,0 l/m 0,3 km/h (0 Bft) SW 225 0 min 0,0 UV-I 8,5 C 7,9 C 0,0 km/h (0 Bft)
18.05.2011 05:35 10,7 C 16,8 C 16,5 C 9,7 C 7,8 C 0,0 C 86 % 76 % 0 % 1018,5 hPa 0,0 l/m 0,0 km/h (0 Bft) SW 225 0 min 0,0 UV-I 8,5 C 7,8 C 0,0 km/h (0 Bft)
18.05.2011 05:40 10,7 C 16,8 C 16,5 C 9,7 C 7,7 C 0,0 C 86 % 76 % 0 % 1018,5 hPa 0,0 l/m 0,0 km/h (0 Bft) SW 225 0 min 0,0 UV-I 8,5 C 7,7 C 0,0 km/h (0 Bft)
18.05.2011 05:45 10,5 C 16,8 C 16,5 C 9,6 C 7,7 C 0,0 C 86 % 76 % 0 % 1018,5 hPa 0,0 l/m 0,0 km/h (0 Bft) SW 225 0 min 0,0 UV-I 8,3 C 7,7 C 0,0 km/h (0 Bft)
18.05.2011 05:50 10,4 C 16,8 C 16,5 C 9,5 C 7,8 C 0,0 C 86 % 76 % 0 % 1018,5 hPa 0,0 l/m 0,0 km/h (0 Bft) SW 225 0 min 0,0 UV-I 8,2 C 7,8 C 0,0 km/h (0 Bft)
18.05.2011 05:55 10,4 C 16,8 C 16,5 C 9,5 C 7,8 C 0,0 C 86 % 76 % 0 % 1018,5 hPa 0,0 l/m 0,0 km/h (0 Bft) SW 225 0 min 0,0 UV-I 8,2 C 7,8 C 0,0 km/h (0 Bft)
18.05.2011 06:00 10,4 C 16,8 C 16,5 C 9,5 C 7,8 C 0,0 C 86 % 76 % 0 % 1018,5 hPa 0,0 l/m 0,0 km/h (0 Bft) SW 225 0 min 0,0 UV-I 8,2 C 7,8 C 0,0 km/h (0 Bft)
18.05.2011 06:10 10,7 C 16,7 C 16,5 C 9,8 C 8,0 C 0,0 C 86 % 76 % 0 % 1018,5 hPa 0,0 l/m 0,0 km/h (0 Bft) N 0 0 min 0,0 UV-I 8,5 C 8,0 C 0,0 km/h (0 Bft)
18.05.2011 06:15 10,7 C 16,7 C 16,5 C 9,9 C 8,2 C 0,0 C 86 % 76 % 0 % 1018,6 hPa 0,0 l/m 0,0 km/h (0 Bft) SW 225 0 min 0,0 UV-I 8,5 C 8,2 C 0,0 km/h (0 Bft)
18.05.2011 06:20 10,7 C 16,7 C 9,2 C 9,9 C 8,3 C 0,0 C 86 % 92 % 0 % 1018,6 hPa 0,0 l/m 0,0 km/h (0 Bft) SW 225 0 min 0,0 UV-I 8,5 C 8,3 C 0,0 km/h (0 Bft)
18.05.2011 06:25 10,8 C 16,6 C 9,3 C 10,0 C 8,4 C 0,0 C 86 % 92 % 0 % 1018,6 hPa 0,0 l/m 0,0 km/h (0 Bft) SW 225 0 min 0,0 UV-I 8,6 C 8,4 C 0,0 km/h (0 Bft)
18.05.2011 06:30 10,8 C 16,6 C 9,3 C 10,0 C 8,5 C 0,0 C 85 % 92 % 0 % 1018,6 hPa 0,0 l/m 0,0 km/h (0 Bft) SW 225 0 min 0,0 UV-I 8,4 C 8,5 C 0,0 km/h (0 Bft)
18.05.2011 06:35 10,8 C 16,6 C 9,3 C 10,1 C 8,6 C 0,0 C 85 % 92 % 0 % 1018,3 hPa 0,0 l/m 0,0 km/h (0 Bft) SW 225 0 min 0,0 UV-I 8,4 C 8,6 C 0,0 km/h (0 Bft)
18.05.2011 06:40 10,9 C 16,6 C 9,3 C 10,2 C 8,9 C 0,0 C 85 % 92 % 0 % 1018,3 hPa 0,0 l/m 0,0 km/h (0 Bft) SW 225 0 min 0,0 UV-I 8,5 C 8,9 C 0,0 km/h (0 Bft)
18.05.2011 06:45 11,2 C 16,6 C 9,5 C 10,5 C 9,2 C 0,0 C 86 % 92 % 0 % 1018,3 hPa 0,0 l/m 0,0 km/h (0 Bft) SW 225 0 min 0,0 UV-I 8,9 C 9,2 C 0,0 km/h (0 Bft)
18.05.2011 06:50 11,5 C 16,6 C 9,6 C 10,8 C 9,4 C 0,0 C 85 % 92 % 0 % 1018,3 hPa 0,0 l/m 0,0 km/h (0 Bft) SW 225 0 min 0,0 UV-I 9,1 C 9,4 C 0,0 km/h (0 Bft)
18.05.2011 06:55 12,1 C 16,6 C 9,8 C 11,4 C 10,0 C 0,0 C 85 % 93 % 0 % 1019,0 hPa 0,0 l/m 0,0 km/h (0 Bft) SW 225 0 min 0,0 UV-I 9,7 C 10,0 C 0,0 km/h (0 Bft)
18.05.2011 07:00 12,7 C 16,6 C 9,8 C 12,0 C 10,7 C 0,0 C 84 % 93 % 0 % 1019,0 hPa 0,0 l/m 0,0 km/h (0 Bft) SW 225 0 min 0,0 UV-I 10,1 C 10,7 C 0,0 km/h (0 Bft)
18.05.2011 07:10 13,3 C 16,4 C 10,1 C 12,9 C 12,2 C 0,0 C 82 % 93 % 0 % 1019,0 hPa 0,0 l/m 0,0 km/h (0 Bft) N 0 0 min 0,0 UV-I 10,3 C 12,2 C 0,0 km/h (0 Bft)
18.05.2011 07:15 13,1 C 16,4 C 10,1 C 13,0 C 12,7 C 0,0 C 82 % 93 % 0 % 1018,0 hPa 0,0 l/m 0,0 km/h (0 Bft) SW 225 0 min 0,0 UV-I 10,1 C 12,7 C 0,0 km/h (0 Bft)
18.05.2011 07:20 13,1 C 16,4 C 10,2 C 13,2 C 13,2 C 0,1 C 82 % 93 % 3 % 1018,0 hPa 0,0 l/m 0,0 km/h (0 Bft) SW 225 0 min 0,0 UV-I 10,1 C 13,2 C 0,0 km/h (0 Bft)
18.05.2011 07:25 13,0 C 16,4 C 10,3 C 13,8 C 13,8 C 0,8 C 82 % 93 % 21 % 1018,0 hPa 0,0 l/m 0,2 km/h (0 Bft) SW 225 0 min 0,1 UV-I 10,0 C 13,8 C 0,0 km/h (0 Bft)
18.05.2011 07:30 13,1 C 16,3 C 10,4 C 14,3 C 14,3 C 1,2 C 82 % 93 % 32 % 1018,0 hPa 0,0 l/m 0,2 km/h (0 Bft) W-SW 247 0 min 0,1 UV-I 10,1 C 14,3 C 0,0 km/h (0 Bft)
18.05.2011 07:35 13,1 C 16,3 C 10,4 C 15,4 C 15,4 C 2,3 C 82 % 93 % 61 % 1018,1 hPa 0,0 l/m 0,0 km/h (0 Bft) SW 225 0 min 0,1 UV-I 10,1 C 15,4 C 0,0 km/h (0 Bft)
18.05.2011 07:40 13,2 C 16,3 C 10,6 C 16,0 C 16,0 C 2,8 C 82 % 93 % 74 % 1018,1 hPa 0,0 l/m 0,0 km/h (0 Bft) W-SW 247 0 min 0,1 UV-I 10,2 C 16,0 C 0,0 km/h (0 Bft)
18.05.2011 07:45 13,4 C 16,3 C 10,8 C 16,5 C 16,5 C 3,1 C 82 % 94 % 82 % 1018,1 hPa 0,0 l/m 0,2 km/h (0 Bft) SW 225 0 min 0,1 UV-I 10,4 C 16,5 C 0,0 km/h (0 Bft)
18.05.2011 07:50 13,5 C 16,3 C 10,9 C 16,9 C 16,9 C 3,4 C 82 % 94 % 89 % 1018,1 hPa 0,0 l/m 0,2 km/h (0 Bft) W-SW 247 5 min 0,1 UV-I 10,5 C 16,9 C 0,0 km/h (0 Bft)
18.05.2011 07:55 13,9 C 16,2 C 11,1 C 17,6 C 17,6 C 3,7 C 83 % 94 % 97 % 1018,4 hPa 0,0 l/m 0,0 km/h (0 Bft) W-SW 247 5 min 0,2 UV-I 11,1 C 17,6 C 0,0 km/h (0 Bft)
18.05.2011 08:00 14,3 C 16,2 C 11,2 C 18,3 C 18,3 C 4,0 C 82 % 94 % 100 % 1018,4 hPa 0,0 l/m 0,0 km/h (0 Bft) S-SW 202 5 min 0,2 UV-I 11,3 C 18,3 C 0,0 km/h (0 Bft)
18.05.2011 08:10 15,0 C 16,2 C 11,5 C 19,2 C 19,2 C 4,2 C 81 % 94 % 100 % 1018,4 hPa 0,0 l/m 0,0 km/h (0 Bft) N 0 10 min 0,2 UV-I 11,8 C 19,2 C 0,0 km/h (0 Bft)
18.05.2011 08:15 15,3 C 16,2 C 11,7 C 19,5 C 19,5 C 4,2 C 80 % 94 % 100 % 1018,2 hPa 0,0 l/m 0,2 km/h (0 Bft) W-SW 247 5 min 0,3 UV-I 11,9 C 19,5 C 1,6 km/h (1 Bft)
18.05.2011 08:20 15,2 C 16,2 C 11,8 C 20,0 C 20,0 C 4,8 C 80 % 94 % 100 % 1018,2 hPa 0,0 l/m 0,2 km/h (0 Bft) SW 225 5 min 0,3 UV-I 11,8 C 20,0 C 0,0 km/h (0 Bft)
18.05.2011 08:25 15,9 C 16,1 C 12,0 C 20,6 C 20,6 C 4,7 C 80 % 94 % 100 % 1018,2 hPa 0,0 l/m 0,0 km/h (0 Bft) SO 135 5 min 0,4 UV-I 12,5 C 20,6 C 0,0 km/h (0 Bft)
18.05.2011 08:30 15,7 C 16,1 C 12,3 C 21,1 C 21,1 C 5,4 C 80 % 94 % 100 % 1018,2 hPa 0,0 l/m 0,2 km/h (0 Bft) NO 45 5 min 0,4 UV-I 12,3 C 21,1 C 3,4 km/h (1 Bft)
18.05.2011 08:35 15,9 C 16,1 C 12,5 C 20,8 C 20,8 C 4,9 C 79 % 94 % 100 % 1018,6 hPa 0,0 l/m 0,5 km/h (0 Bft) S 180 5 min 0,5 UV-I 12,3 C 20,8 C 0,0 km/h (0 Bft)
18.05.2011 08:40 15,9 C 16,1 C 12,5 C 21,3 C 21,3 C 5,4 C 79 % 94 % 100 % 1018,6 hPa 0,0 l/m 0,5 km/h (0 Bft) S 180 5 min 0,5 UV-I 12,3 C 21,3 C 0,0 km/h (0 Bft)
18.05.2011 08:45 15,9 C 16,0 C 12,6 C 21,6 C 21,6 C 5,7 C 79 % 94 % 100 % 1018,6 hPa 0,0 l/m 0,0 km/h (0 Bft) W-SW 247 5 min 0,6 UV-I 12,3 C 21,6 C 0,0 km/h (0 Bft)
18.05.2011 08:50 15,9 C 16,0 C 12,9 C 21,9 C 21,9 C 6,0 C 80 % 94 % 100 % 1018,6 hPa 0,0 l/m 0,2 km/h (0 Bft) W-SW 247 5 min 0,6 UV-I 12,5 C 21,9 C 0,0 km/h (0 Bft)
18.05.2011 08:55 15,9 C 16,0 C 13,1 C 22,1 C 22,1 C 6,2 C 81 % 94 % 100 % 1018,4 hPa 0,0 l/m 0,6 km/h (0 Bft) W-SW 247 5 min 0,8 UV-I 12,6 C 22,1 C 2,6 km/h (1 Bft)
18.05.2011 09:00 16,0 C 16,0 C 13,2 C 22,0 C 22,0 C 6,0 C 81 % 93 % 100 % 1018,4 hPa 0,0 l/m 1,3 km/h (1 Bft) W-SW 247 5 min 0,8 UV-I 12,7 C 22,0 C 2,7 km/h (1 Bft)
18.05.2011 09:10 16,1 C 16,0 C 13,6 C 23,0 C 23,0 C 6,9 C 81 % 94 % 100 % 1018,4 hPa 0,0 l/m 1,3 km/h (1 Bft) N 0 10 min 0,9 UV-I 12,8 C 23,0 C 2,6 km/h (1 Bft)
18.05.2011 09:15 16,3 C 16,0 C 13,8 C 23,8 C 23,8 C 7,5 C 81 % 94 % 100 % 1018,4 hPa 0,0 l/m 1,0 km/h (0 Bft) SW 225 5 min 1,1 UV-I 13,0 C 23,8 C 1,8 km/h (1 Bft)
18.05.2011 09:20 16,4 C 16,0 C 13,9 C 24,5 C 24,5 C 8,1 C 81 % 94 % 100 % 1018,4 hPa 0,0 l/m 0,8 km/h (0 Bft) SW 225 5 min 1,1 UV-I 13,1 C 24,5 C 2,1 km/h (1 Bft)
18.05.2011 09:25 16,7 C 16,0 C 14,2 C 24,8 C 24,8 C 8,1 C 80 % 93 % 100 % 1018,4 hPa 0,0 l/m 1,0 km/h (0 Bft) S 180 5 min 1,2 UV-I 13,2 C 24,8 C 5,3 km/h (1 Bft)
18.05.2011 09:30 16,7 C 16,0 C 14,3 C 24,7 C 24,7 C 8,0 C 80 % 93 % 100 % 1018,4 hPa 0,0 l/m 1,6 km/h (1 Bft) S-SW 202 5 min 1,2 UV-I 13,2 C 24,7 C 2,4 km/h (1 Bft)
18.05.2011 09:35 16,9 C 16,0 C 14,5 C 24,9 C 24,9 C 8,0 C 80 % 93 % 100 % 1018,4 hPa 0,0 l/m 1,9 km/h (1 Bft) O-NO 67 5 min 1,3 UV-I 13,4 C 24,9 C 0,0 km/h (0 Bft)
18.05.2011 09:40 17,1 C 16,0 C 14,8 C 25,2 C 25,2 C 8,1 C 77 % 92 % 100 % 1018,4 hPa 0,0 l/m 1,4 km/h (1 Bft) S 180 5 min 1,3 UV-I 13,0 C 25,2 C 4,2 km/h (1 Bft)
18.05.2011 09:45 17,5 C 16,0 C 15,0 C 25,9 C 25,9 C 8,4 C 75 % 92 % 100 % 1018,4 hPa 0,0 l/m 1,0 km/h (0 Bft) W-SW 247 5 min 0,9 UV-I 13,0 C 25,9 C 0,0 km/h (0 Bft)
18.05.2011 09:50 17,5 C 16,0 C 15,2 C 25,6 C 25,6 C 8,1 C 75 % 91 % 100 % 1018,4 hPa 0,0 l/m 1,3 km/h (1 Bft) SO 135 5 min 0,9 UV-I 13,0 C 25,6 C 2,6 km/h (1 Bft)
18.05.2011 09:55 17,6 C 16,0 C 15,4 C 24,5 C 24,5 C 6,9 C 74 % 89 % 100 % 1018,2 hPa 0,0 l/m 2,1 km/h (1 Bft) W-SW 247 5 min 0,9 UV-I 12,9 C 24,5 C 12,2 km/h (2 Bft)
18.05.2011 10:00 17,8 C 16,1 C 15,5 C 23,6 C 23,6 C 5,8 C 73 % 88 % 100 % 1018,2 hPa 0,0 l/m 2,7 km/h (1 Bft) SW 225 5 min 0,9 UV-I 12,9 C 23,6 C 9,5 km/h (2 Bft)
18.05.2011 10:10 18,0 C 16,1 C 15,7 C 23,3 C 23,3 C 5,3 C 71 % 85 % 100 % 1018,2 hPa 0,0 l/m 3,4 km/h (1 Bft) N 0 10 min 1,0 UV-I 12,7 C 23,3 C 6,8 km/h (2 Bft)
18.05.2011 10:15 18,3 C 16,1 C 16,0 C 23,8 C 23,8 C 5,5 C 70 % 85 % 100 % 1018,4 hPa 0,0 l/m 3,9 km/h (1 Bft) SW 225 5 min 1,0 UV-I 12,7 C 23,8 C 11,7 km/h (2 Bft)
18.05.2011 10:20 18,3 C 16,0 C 16,1 C 24,2 C 24,2 C 5,9 C 70 % 84 % 100 % 1018,4 hPa 0,0 l/m 4,8 km/h (1 Bft) W-SW 247 5 min 1,0 UV-I 12,7 C 24,2 C 6,0 km/h (2 Bft)
18.05.2011 10:25 18,5 C 16,0 C 16,3 C 24,7 C 24,7 C 6,2 C 70 % 84 % 100 % 1018,4 hPa 0,0 l/m 4,3 km/h (1 Bft) SW 225 5 min 1,1 UV-I 12,9 C 24,7 C 13,2 km/h (3 Bft)
18.05.2011 10:30 18,7 C 16,0 C 16,5 C 24,7 C 24,7 C 6,0 C 69 % 82 % 100 % 1018,4 hPa 0,0 l/m 4,5 km/h (1 Bft) S 180 5 min 1,1 UV-I 12,9 C 24,7 C 4,3 km/h (1 Bft)
18.05.2011 10:35 18,9 C 16,0 C 16,9 C 25,0 C 25,0 C 6,1 C 68 % 82 % 100 % 1017,9 hPa 0,0 l/m 5,0 km/h (1 Bft) S 180 5 min 2,1 UV-I 12,9 C 25,0 C 14,8 km/h (3 Bft)
18.05.2011 10:40 19,1 C 16,0 C 16,9 C 25,3 C 25,3 C 6,2 C 67 % 81 % 100 % 1017,9 hPa 0,0 l/m 3,4 km/h (1 Bft) SO 135 5 min 2,1 UV-I 12,8 C 25,3 C 4,5 km/h (1 Bft)
18.05.2011 10:45 19,3 C 16,0 C 17,1 C 25,4 C 25,4 C 6,1 C 65 % 78 % 100 % 1017,9 hPa 0,0 l/m 3,7 km/h (1 Bft) O-SO 112 5 min 1,4 UV-I 12,6 C 25,4 C 5,6 km/h (1 Bft)
18.05.2011 10:50 19,5 C 16,0 C 17,1 C 25,4 C 25,4 C 5,9 C 63 % 77 % 100 % 1017,9 hPa 0,0 l/m 4,5 km/h (1 Bft) S 180 5 min 1,4 UV-I 12,3 C 25,4 C 7,4 km/h (2 Bft)
18.05.2011 10:55 19,6 C 16,1 C 17,2 C 25,5 C 25,5 C 5,9 C 63 % 77 % 100 % 1017,8 hPa 0,0 l/m 3,7 km/h (1 Bft) S 180 5 min 1,2 UV-I 12,4 C 25,5 C 0,0 km/h (0 Bft)
18.05.2011 11:00 19,9 C 16,0 C 17,2 C 25,9 C 25,9 C 6,0 C 62 % 76 % 100 % 1017,8 hPa 0,0 l/m 3,2 km/h (1 Bft) SO 135 5 min 1,2 UV-I 12,4 C 25,9 C 3,1 km/h (1 Bft)
18.05.2011 11:10 20,1 C 16,1 C 17,6 C 25,8 C 25,8 C 5,7 C 57 % 72 % 100 % 1017,8 hPa 0,0 l/m 4,0 km/h (1 Bft) N 0 10 min 1,3 UV-I 11,3 C 25,8 C 3,9 km/h (1 Bft)
18.05.2011 11:15 20,0 C 16,1 C 17,7 C 24,6 C 24,6 C 4,6 C 57 % 71 % 100 % 1017,9 hPa 0,0 l/m 3,5 km/h (1 Bft) S 180 5 min 1,5 UV-I 11,2 C 24,6 C 4,2 km/h (1 Bft)
18.05.2011 11:20 20,3 C 16,0 C 17,9 C 24,7 C 24,7 C 4,4 C 56 % 70 % 100 % 1017,9 hPa 0,0 l/m 3,9 km/h (1 Bft) S 180 5 min 1,5 UV-I 11,2 C 24,7 C 4,2 km/h (1 Bft)
18.05.2011 11:25 20,4 C 16,1 C 18,1 C 25,4 C 25,4 C 5,0 C 56 % 70 % 100 % 1017,9 hPa 0,0 l/m 3,9 km/h (1 Bft) O-NO 67 5 min 1,4 UV-I 11,3 C 25,4 C 4,8 km/h (1 Bft)
18.05.2011 11:30 20,6 C 16,1 C 18,1 C 25,9 C 25,9 C 5,3 C 56 % 71 % 100 % 1017,9 hPa 0,0 l/m 2,7 km/h (1 Bft) S-SW 202 5 min 1,4 UV-I 11,5 C 25,9 C 1,9 km/h (1 Bft)
18.05.2011 11:35 20,8 C 16,1 C 18,4 C 26,2 C 26,2 C 5,4 C 56 % 69 % 100 % 1017,9 hPa 0,0 l/m 4,8 km/h (1 Bft) S 180 5 min 1,4 UV-I 11,7 C 26,2 C 13,0 km/h (3 Bft)
18.05.2011 11:40 20,8 C 16,1 C 18,5 C 25,5 C 25,5 C 4,7 C 55 % 69 % 100 % 1017,9 hPa 0,0 l/m 6,1 km/h (2 Bft) W-SW 247 5 min 1,4 UV-I 11,4 C 25,5 C 3,9 km/h (1 Bft)
18.05.2011 11:45 20,9 C 16,1 C 18,5 C 25,7 C 25,7 C 4,8 C 54 % 67 % 100 % 1017,9 hPa 0,0 l/m 5,3 km/h (1 Bft) O-SO 112 5 min 1,4 UV-I 11,2 C 25,7 C 3,4 km/h (1 Bft)
18.05.2011 11:50 21,0 C 16,2 C 18,7 C 25,9 C 25,9 C 4,9 C 55 % 68 % 100 % 1017,9 hPa 0,0 l/m 4,2 km/h (1 Bft) S-SW 202 5 min 1,4 UV-I 11,6 C 25,9 C 6,9 km/h (2 Bft)
18.05.2011 11:55 21,2 C 16,2 C 18,9 C 25,9 C 25,9 C 4,7 C 53 % 65 % 100 % 1017,6 hPa 0,0 l/m 6,4 km/h (2 Bft) W 270 5 min 1,5 UV-I 11,2 C 25,9 C 17,4 km/h (3 Bft)
18.05.2011 12:00 21,1 C 16,2 C 19,2 C 25,5 C 25,5 C 4,4 C 53 % 66 % 100 % 1017,6 hPa 0,0 l/m 7,6 km/h (2 Bft) S-SW 202 5 min 1,5 UV-I 11,1 C 25,5 C 4,2 km/h (1 Bft)
18.05.2011 12:10 21,5 C 16,2 C 19,6 C 25,5 C 25,5 C 4,0 C 53 % 65 % 100 % 1017,6 hPa 0,0 l/m 5,0 km/h (1 Bft) N 0 10 min 1,6 UV-I 11,5 C 25,5 C 18,0 km/h (3 Bft)
18.05.2011 12:15 21,7 C 16,3 C 19,6 C 25,6 C 25,6 C 3,9 C 51 % 63 % 100 % 1017,6 hPa 0,0 l/m 5,3 km/h (1 Bft) W-SW 247 5 min 3,4 UV-I 11,1 C 25,6 C 7,6 km/h (2 Bft)
18.05.2011 12:20 21,8 C 16,3 C 19,6 C 25,7 C 25,7 C 3,9 C 50 % 61 % 100 % 1017,6 hPa 0,0 l/m 5,0 km/h (1 Bft) S-SO 157 5 min 3,4 UV-I 10,9 C 25,7 C 3,5 km/h (1 Bft)
18.05.2011 12:25 21,9 C 16,3 C 19,8 C 26,1 C 26,1 C 4,2 C 51 % 62 % 100 % 1017,6 hPa 0,0 l/m 3,7 km/h (1 Bft) S-SW 202 5 min 3,5 UV-I 11,3 C 26,1 C 7,7 km/h (2 Bft)
18.05.2011 12:30 22,0 C 16,3 C 19,8 C 26,6 C 26,6 C 4,6 C 52 % 62 % 100 % 1017,6 hPa 0,0 l/m 3,2 km/h (1 Bft) SO 135 5 min 3,5 UV-I 11,7 C 26,6 C 3,1 km/h (1 Bft)
18.05.2011 12:35 21,9 C 16,3 C 19,8 C 26,3 C 26,3 C 4,4 C 52 % 64 % 100 % 1017,4 hPa 0,0 l/m 3,9 km/h (1 Bft) SW 225 5 min 2,5 UV-I 11,6 C 26,3 C 6,9 km/h (2 Bft)
18.05.2011 12:40 21,9 C 16,3 C 19,9 C 26,0 C 26,0 C 4,1 C 52 % 65 % 100 % 1017,4 hPa 0,0 l/m 5,0 km/h (1 Bft) W-SW 247 5 min 2,5 UV-I 11,6 C 26,0 C 11,3 km/h (2 Bft)
18.05.2011 12:45 22,1 C 16,4 C 20,0 C 25,5 C 25,5 C 3,4 C 50 % 61 % 89 % 1017,4 hPa 0,0 l/m 5,5 km/h (1 Bft) SW 225 5 min 3,7 UV-I 11,2 C 25,5 C 8,0 km/h (2 Bft)
18.05.2011 12:50 22,1 C 16,4 C 20,0 C 25,9 C 25,9 C 3,8 C 50 % 63 % 100 % 1017,4 hPa 0,0 l/m 5,5 km/h (1 Bft) SW 225 5 min 3,7 UV-I 11,2 C 25,9 C 8,9 km/h (2 Bft)
18.05.2011 12:55 22,4 C 16,4 C 20,4 C 26,6 C 26,6 C 4,2 C 49 % 61 % 100 % 1017,6 hPa 0,0 l/m 4,3 km/h (1 Bft) S-SW 202 5 min 3,6 UV-I 11,2 C 26,6 C 4,3 km/h (1 Bft)
18.05.2011 13:00 22,4 C 16,4 C 20,4 C 26,9 C 26,9 C 4,5 C 47 % 61 % 100 % 1017,6 hPa 0,0 l/m 3,5 km/h (1 Bft) O-NO 67 5 min 3,6 UV-I 10,5 C 26,9 C 2,9 km/h (1 Bft)
18.05.2011 13:10 22,6 C 16,5 C 20,7 C 26,9 C 26,9 C 4,3 C 48 % 58 % 100 % 1017,6 hPa 0,0 l/m 4,3 km/h (1 Bft) N 0 10 min 2,9 UV-I 11,0 C 26,9 C 5,1 km/h (1 Bft)
18.05.2011 13:15 22,5 C 16,5 C 20,9 C 27,1 C 27,1 C 4,6 C 49 % 61 % 100 % 1017,5 hPa 0,0 l/m 5,0 km/h (1 Bft) W-SW 247 5 min 3,4 UV-I 11,2 C 27,1 C 20,9 km/h (4 Bft)
18.05.2011 13:20 22,5 C 16,5 C 20,8 C 26,8 C 26,8 C 4,3 C 48 % 59 % 100 % 1017,5 hPa 0,0 l/m 3,7 km/h (1 Bft) S 180 5 min 3,4 UV-I 10,9 C 26,8 C 2,6 km/h (1 Bft)
18.05.2011 13:25 22,3 C 16,5 C 20,6 C 25,2 C 25,2 C 2,9 C 49 % 61 % 76 % 1017,5 hPa 0,0 l/m 3,9 km/h (1 Bft) SW 225 0 min 2,1 UV-I 11,1 C 25,2 C 11,4 km/h (2 Bft)
18.05.2011 13:30 22,5 C 16,6 C 20,8 C 25,8 C 25,8 C 3,3 C 49 % 60 % 87 % 1017,5 hPa 0,0 l/m 5,0 km/h (1 Bft) SW 225 5 min 2,1 UV-I 11,2 C 25,8 C 10,5 km/h (2 Bft)
18.05.2011 13:35 22,9 C 16,6 C 21,4 C 27,0 C 27,0 C 4,1 C 47 % 58 % 100 % 1017,4 hPa 0,0 l/m 5,1 km/h (1 Bft) S-SW 202 5 min 4,0 UV-I 11,0 C 27,0 C 10,5 km/h (2 Bft)
18.05.2011 13:40 23,1 C 16,5 C 21,5 C 27,5 C 27,5 C 4,4 C 46 % 56 % 100 % 1017,4 hPa 0,0 l/m 4,3 km/h (1 Bft) W 270 5 min 4,0 UV-I 10,8 C 27,5 C 0,0 km/h (0 Bft)
18.05.2011 13:45 23,3 C 16,6 C 21,9 C 28,1 C 28,1 C 4,8 C 45 % 56 % 100 % 1017,4 hPa 0,0 l/m 3,9 km/h (1 Bft) S-SO 157 5 min 3,9 UV-I 10,7 C 28,1 C 1,8 km/h (1 Bft)
18.05.2011 13:50 23,2 C 16,6 C 21,9 C 27,9 C 27,9 C 4,7 C 46 % 55 % 100 % 1017,4 hPa 0,0 l/m 3,7 km/h (1 Bft) W 270 5 min 3,9 UV-I 10,9 C 27,9 C 5,5 km/h (1 Bft)
18.05.2011 13:55 23,0 C 16,6 C 21,8 C 26,8 C 26,8 C 3,8 C 46 % 57 % 100 % 1017,2 hPa 0,0 l/m 4,5 km/h (1 Bft) S-SW 202 5 min 3,6 UV-I 10,7 C 26,8 C 2,4 km/h (1 Bft)
18.05.2011 14:00 23,2 C 16,6 C 22,0 C 27,3 C 27,3 C 4,1 C 45 % 57 % 100 % 1017,2 hPa 0,0 l/m 4,3 km/h (1 Bft) SW 225 5 min 3,6 UV-I 10,6 C 27,3 C 10,6 km/h (2 Bft)
18.05.2011 14:10 23,2 C 16,7 C 22,2 C 27,1 C 27,1 C 3,9 C 45 % 55 % 100 % 1017,2 hPa 0,0 l/m 3,7 km/h (1 Bft) N 0 10 min 3,1 UV-I 10,6 C 27,1 C 7,6 km/h (2 Bft)
18.05.2011 14:15 23,6 C 16,7 C 22,7 C 27,8 C 27,8 C 4,2 C 42 % 53 % 100 % 1016,9 hPa 0,0 l/m 3,2 km/h (1 Bft) SW 225 5 min 3,6 UV-I 9,9 C 27,8 C 8,0 km/h (2 Bft)
18.05.2011 14:20 23,6 C 16,8 C 23,1 C 27,9 C 27,9 C 4,3 C 44 % 54 % 100 % 1016,9 hPa 0,0 l/m 4,5 km/h (1 Bft) SW 225 5 min 3,6 UV-I 10,6 C 27,9 C 10,6 km/h (2 Bft)
18.05.2011 14:25 23,8 C 16,8 C 23,9 C 27,9 C 27,9 C 4,1 C 43 % 51 % 100 % 1016,9 hPa 0,0 l/m 5,6 km/h (1 Bft) S-SO 157 5 min 3,6 UV-I 10,5 C 27,9 C 7,6 km/h (2 Bft)
18.05.2011 14:30 23,8 C 16,8 C 23,8 C 28,0 C 28,0 C 4,2 C 40 % 46 % 100 % 1016,9 hPa 0,0 l/m 4,7 km/h (1 Bft) NO 45 5 min 3,6 UV-I 9,4 C 28,0 C 1,9 km/h (1 Bft)
18.05.2011 14:35 24,0 C 16,8 C 24,5 C 28,3 C 28,3 C 4,3 C 42 % 49 % 100 % 1016,8 hPa 0,0 l/m 3,7 km/h (1 Bft) SO 135 5 min 3,6 UV-I 10,3 C 28,3 C 6,4 km/h (2 Bft)
18.05.2011 14:40 24,0 C 16,8 C 25,1 C 28,4 C 28,4 C 4,4 C 41 % 48 % 100 % 1016,8 hPa 0,0 l/m 3,9 km/h (1 Bft) W-NW 292 5 min 3,6 UV-I 9,9 C 28,4 C 5,1 km/h (1 Bft)
18.05.2011 14:45 24,2 C 16,8 C 25,6 C 28,5 C 28,5 C 4,3 C 39 % 42 % 100 % 1016,8 hPa 0,0 l/m 3,7 km/h (1 Bft) W-SW 247 5 min 3,4 UV-I 9,4 C 28,5 C 6,8 km/h (2 Bft)
18.05.2011 14:50 24,3 C 16,8 C 26,1 C 28,6 C 28,6 C 4,3 C 38 % 43 % 100 % 1016,8 hPa 0,0 l/m 3,7 km/h (1 Bft) SO 135 5 min 3,4 UV-I 9,1 C 28,6 C 6,3 km/h (2 Bft)
18.05.2011 14:55 24,4 C 16,9 C 26,7 C 28,4 C 28,4 C 4,0 C 41 % 43 % 100 % 1016,6 hPa 0,0 l/m 5,0 km/h (1 Bft) W 270 5 min 3,1 UV-I 10,3 C 28,4 C 3,2 km/h (1 Bft)
18.05.2011 15:00 24,5 C 16,9 C 27,2 C 28,2 C 28,2 C 3,7 C 40 % 44 % 97 % 1016,6 hPa 0,0 l/m 6,3 km/h (2 Bft) S 180 5 min 3,1 UV-I 10,0 C 28,2 C 9,5 km/h (2 Bft)
18.05.2011 15:10 24,7 C 17,0 C 27,6 C 28,5 C 28,5 C 3,8 C 42 % 45 % 100 % 1016,6 hPa 0,0 l/m 4,3 km/h (1 Bft) N 0 10 min 2,8 UV-I 10,9 C 28,5 C 8,0 km/h (2 Bft)
18.05.2011 15:15 24,8 C 17,0 C 27,8 C 28,7 C 28,7 C 3,9 C 39 % 40 % 100 % 1017,0 hPa 0,0 l/m 4,3 km/h (1 Bft) N-NW 337 5 min 2,6 UV-I 9,9 C 28,7 C 5,5 km/h (1 Bft)
18.05.2011 15:20 24,9 C 17,0 C 27,9 C 28,8 C 28,8 C 3,9 C 38 % 40 % 100 % 1017,0 hPa 0,0 l/m 4,3 km/h (1 Bft) W-SW 247 5 min 2,6 UV-I 9,6 C 28,8 C 1,8 km/h (1 Bft)
18.05.2011 15:25 25,1 C 17,1 C 28,1 C 28,7 C 28,7 C 3,6 C 38 % 41 % 95 % 1017,0 hPa 0,0 l/m 4,3 km/h (1 Bft) O-SO 112 5 min 2,6 UV-I 9,8 C 28,7 C 6,6 km/h (2 Bft)
18.05.2011 15:30 25,0 C 17,1 C 27,7 C 29,0 C 29,0 C 4,0 C 38 % 37 % 100 % 1017,0 hPa 0,0 l/m 3,7 km/h (1 Bft) W-SW 247 5 min 2,6 UV-I 9,7 C 29,0 C 6,1 km/h (2 Bft)
18.05.2011 15:35 25,1 C 17,2 C 27,7 C 28,9 C 28,9 C 3,8 C 39 % 40 % 100 % 1016,4 hPa 0,0 l/m 5,0 km/h (1 Bft) SW 225 5 min 2,6 UV-I 10,2 C 28,9 C 14,5 km/h (3 Bft)
18.05.2011 15:40 25,0 C 17,3 C 27,5 C 28,7 C 28,7 C 3,7 C 38 % 36 % 97 % 1016,4 hPa 0,0 l/m 5,3 km/h (1 Bft) SO 135 5 min 2,6 UV-I 9,7 C 28,7 C 0,0 km/h (0 Bft)
18.05.2011 15:45 25,0 C 17,3 C 27,1 C 28,9 C 28,9 C 3,9 C 38 % 41 % 100 % 1016,4 hPa 0,0 l/m 4,8 km/h (1 Bft) W 270 5 min 2,3 UV-I 9,7 C 28,9 C 9,2 km/h (2 Bft)
18.05.2011 15:50 25,0 C 17,3 C 27,3 C 28,5 C 28,5 C 3,5 C 38 % 40 % 92 % 1016,4 hPa 0,0 l/m 5,1 km/h (1 Bft) S 180 5 min 2,3 UV-I 9,7 C 28,5 C 6,1 km/h (2 Bft)
18.05.2011 15:55 25,3 C 17,4 C 27,1 C 28,4 C 28,4 C 3,1 C 38 % 40 % 82 % 1016,1 hPa 0,0 l/m 5,8 km/h (2 Bft) S 180 0 min 2,1 UV-I 9,9 C 28,4 C 5,5 km/h (1 Bft)
18.05.2011 16:00 25,2 C 17,4 C 26,9 C 28,6 C 28,6 C 3,4 C 38 % 45 % 89 % 1016,1 hPa 0,0 l/m 4,3 km/h (1 Bft) S 180 5 min 2,1 UV-I 9,9 C 28,6 C 9,0 km/h (2 Bft)
18.05.2011 16:10 25,5 C 17,5 C 26,8 C 28,8 C 28,8 C 3,3 C 41 % 45 % 87 % 1016,1 hPa 0,0 l/m 5,0 km/h (1 Bft) N 0 10 min 1,9 UV-I 11,3 C 28,8 C 4,5 km/h (1 Bft)
18.05.2011 16:15 25,4 C 17,6 C 26,7 C 29,0 C 29,0 C 3,6 C 38 % 40 % 95 % 1015,9 hPa 0,0 l/m 3,9 km/h (1 Bft) S 180 5 min 1,7 UV-I 10,0 C 29,0 C 10,5 km/h (2 Bft)
18.05.2011 16:20 25,4 C 17,6 C 26,7 C 29,1 C 29,1 C 3,7 C 39 % 44 % 97 % 1015,9 hPa 0,0 l/m 3,7 km/h (1 Bft) SW 225 5 min 1,7 UV-I 10,4 C 29,1 C 11,6 km/h (2 Bft)
18.05.2011 16:25 25,5 C 17,7 C 27,0 C 28,9 C 28,9 C 3,4 C 40 % 41 % 89 % 1015,9 hPa 0,0 l/m 5,1 km/h (1 Bft) S 180 5 min 1,6 UV-I 10,9 C 28,9 C 2,6 km/h (1 Bft)
18.05.2011 16:30 25,5 C 17,7 C 26,6 C 29,1 C 29,1 C 3,6 C 39 % 43 % 95 % 1015,9 hPa 0,0 l/m 4,8 km/h (1 Bft) SW 225 5 min 1,6 UV-I 10,5 C 29,1 C 8,2 km/h (2 Bft)
18.05.2011 16:35 25,7 C 17,8 C 26,5 C 29,4 C 29,4 C 3,7 C 40 % 44 % 97 % 1015,9 hPa 0,0 l/m 3,2 km/h (1 Bft) S 180 5 min 0,9 UV-I 11,1 C 29,4 C 5,8 km/h (2 Bft)
18.05.2011 16:40 25,7 C 17,8 C 26,7 C 29,4 C 29,4 C 3,7 C 39 % 43 % 97 % 1015,9 hPa 0,0 l/m 4,3 km/h (1 Bft) SW 225 5 min 0,9 UV-I 10,7 C 29,4 C 6,1 km/h (2 Bft)
18.05.2011 16:45 25,7 C 17,9 C 26,7 C 29,2 C 29,2 C 3,5 C 39 % 41 % 92 % 1015,9 hPa 0,0 l/m 5,1 km/h (1 Bft) S 180 5 min 0,8 UV-I 10,7 C 29,2 C 3,5 km/h (1 Bft)
18.05.2011 16:50 25,9 C 17,9 C 26,5 C 29,3 C 29,3 C 3,4 C 39 % 42 % 89 % 1015,9 hPa 0,0 l/m 4,8 km/h (1 Bft) SW 225 5 min 0,8 UV-I 10,9 C 29,3 C 8,5 km/h (2 Bft)
18.05.2011 16:55 25,8 C 17,9 C 26,8 C 28,7 C 28,7 C 2,9 C 38 % 41 % 76 % 1015,8 hPa 0,0 l/m 6,4 km/h (2 Bft) S-SW 202 0 min 0,8 UV-I 10,4 C 28,7 C 2,9 km/h (1 Bft)
18.05.2011 17:00 25,9 C 18,0 C 26,7 C 28,7 C 28,7 C 2,8 C 39 % 43 % 74 % 1015,8 hPa 0,0 l/m 6,1 km/h (2 Bft) SW 225 0 min 0,8 UV-I 10,9 C 28,7 C 6,1 km/h (2 Bft)
18.05.2011 17:10 26,2 C 18,0 C 26,3 C 29,2 C 29,2 C 3,0 C 40 % 44 % 79 % 1015,8 hPa 0,0 l/m 4,2 km/h (1 Bft) N 0 0 min 1,1 UV-I 11,5 C 29,2 C 7,4 km/h (2 Bft)
18.05.2011 17:15 26,3 C 18,1 C 26,0 C 29,5 C 29,5 C 3,2 C 39 % 43 % 84 % 1015,8 hPa 0,0 l/m 3,2 km/h (1 Bft) W-SW 247 0 min 0,9 UV-I 11,2 C 29,5 C 5,5 km/h (1 Bft)
18.05.2011 17:20 26,5 C 18,1 C 26,1 C 29,5 C 29,5 C 3,0 C 39 % 43 % 79 % 1015,8 hPa 0,0 l/m 4,2 km/h (1 Bft) W-SW 247 0 min 0,9 UV-I 11,4 C 29,5 C 6,1 km/h (2 Bft)
18.05.2011 17:25 26,4 C 18,1 C 26,0 C 29,4 C 29,4 C 3,0 C 39 % 45 % 79 % 1015,8 hPa 0,0 l/m 4,3 km/h (1 Bft) S-SW 202 0 min 0,8 UV-I 11,3 C 29,4 C 7,1 km/h (2 Bft)
18.05.2011 17:30 26,3 C 18,2 C 26,0 C 29,2 C 29,2 C 2,9 C 39 % 44 % 76 % 1015,8 hPa 0,0 l/m 4,7 km/h (1 Bft) N 360 0 min 0,8 UV-I 11,2 C 29,2 C 7,2 km/h (2 Bft)
18.05.2011 17:35 26,0 C 18,2 C 25,7 C 28,3 C 28,3 C 2,3 C 40 % 45 % 61 % 1015,4 hPa 0,0 l/m 5,1 km/h (1 Bft) SW 225 0 min 0,6 UV-I 11,3 C 28,3 C 10,1 km/h (2 Bft)
18.05.2011 17:40 26,4 C 18,2 C 25,5 C 28,3 C 28,3 C 1,9 C 38 % 43 % 50 % 1015,4 hPa 0,0 l/m 5,0 km/h (1 Bft) SW 225 0 min 0,6 UV-I 10,9 C 28,3 C 5,8 km/h (2 Bft)
18.05.2011 17:45 26,3 C 18,2 C 25,5 C 28,5 C 28,5 C 2,2 C 39 % 47 % 58 % 1015,4 hPa 0,0 l/m 4,5 km/h (1 Bft) S-SO 157 0 min 0,5 UV-I 11,2 C 28,5 C 5,8 km/h (2 Bft)
18.05.2011 17:50 26,3 C 18,3 C 25,4 C 28,6 C 28,6 C 2,3 C 37 % 43 % 61 % 1015,4 hPa 0,0 l/m 4,2 km/h (1 Bft) S-SO 157 0 min 0,5 UV-I 10,4 C 28,6 C 2,4 km/h (1 Bft)
18.05.2011 17:55 26,5 C 18,3 C 25,4 C 28,8 C 28,8 C 2,3 C 37 % 43 % 61 % 1015,5 hPa 0,0 l/m 4,3 km/h (1 Bft) W-SW 247 0 min 0,5 UV-I 10,6 C 28,8 C 5,8 km/h (2 Bft)
18.05.2011 18:00 26,5 C 18,3 C 25,3 C 28,9 C 28,9 C 2,4 C 37 % 44 % 63 % 1015,5 hPa 0,0 l/m 3,9 km/h (1 Bft) SO 135 0 min 0,5 UV-I 10,6 C 28,9 C 2,6 km/h (1 Bft)
18.05.2011 18:10 26,9 C 18,3 C 25,6 C 29,6 C 29,6 C 2,7 C 38 % 46 % 71 % 1015,5 hPa 0,0 l/m 2,6 km/h (1 Bft) N 0 0 min 0,4 UV-I 11,4 C 29,6 C 5,3 km/h (1 Bft)
18.05.2011 18:15 26,9 C 18,4 C 25,3 C 29,8 C 29,8 C 2,9 C 38 % 46 % 76 % 1015,5 hPa 0,0 l/m 2,4 km/h (1 Bft) W-SW 247 0 min 0,4 UV-I 11,4 C 29,8 C 0,0 km/h (0 Bft)
18.05.2011 18:20 26,9 C 18,4 C 25,3 C 30,2 C 30,2 C 3,3 C 38 % 48 % 87 % 1015,5 hPa 0,0 l/m 1,9 km/h (1 Bft) S-SO 157 5 min 0,4 UV-I 11,4 C 30,2 C 5,5 km/h (1 Bft)
18.05.2011 18:25 26,9 C 18,4 C 25,5 C 29,9 C 29,9 C 3,0 C 38 % 46 % 79 % 1015,5 hPa 0,0 l/m 3,1 km/h (1 Bft) SW 225 0 min 0,3 UV-I 11,4 C 29,9 C 8,9 km/h (2 Bft)
18.05.2011 18:30 26,9 C 18,4 C 25,3 C 29,6 C 29,6 C 2,7 C 38 % 48 % 71 % 1015,5 hPa 0,0 l/m 3,7 km/h (1 Bft) NW 315 0 min 0,3 UV-I 11,4 C 29,6 C 6,1 km/h (2 Bft)
18.05.2011 18:35 26,9 C 18,4 C 25,2 C 29,0 C 29,0 C 2,1 C 38 % 45 % 55 % 1015,2 hPa 0,0 l/m 4,3 km/h (1 Bft) SW 225 0 min 0,2 UV-I 11,4 C 29,0 C 7,2 km/h (2 Bft)
18.05.2011 18:40 26,7 C 18,4 C 25,3 C 28,6 C 28,6 C 1,9 C 38 % 45 % 50 % 1015,2 hPa 0,0 l/m 5,3 km/h (1 Bft) SW 225 0 min 0,2 UV-I 11,2 C 28,6 C 6,9 km/h (2 Bft)
18.05.2011 18:45 26,7 C 18,4 C 25,0 C 28,4 C 28,4 C 1,7 C 39 % 47 % 45 % 1015,2 hPa 0,0 l/m 4,2 km/h (1 Bft) SW 225 0 min 0,2 UV-I 11,6 C 28,4 C 6,6 km/h (2 Bft)
18.05.2011 18:50 26,5 C 18,4 C 24,8 C 28,0 C 28,0 C 1,5 C 39 % 47 % 39 % 1015,2 hPa 0,0 l/m 3,7 km/h (1 Bft) S 180 0 min 0,2 UV-I 11,4 C 28,0 C 2,9 km/h (1 Bft)
18.05.2011 18:55 26,7 C 18,4 C 24,6 C 27,7 C 27,7 C 1,0 C 39 % 47 % 26 % 1015,4 hPa 0,0 l/m 4,0 km/h (1 Bft) SW 225 0 min 0,1 UV-I 11,6 C 27,7 C 6,8 km/h (2 Bft)
18.05.2011 19:00 26,7 C 18,4 C 24,5 C 27,7 C 27,7 C 1,0 C 40 % 50 % 26 % 1015,4 hPa 0,0 l/m 3,5 km/h (1 Bft) W-SW 247 0 min 0,1 UV-I 12,0 C 27,7 C 3,4 km/h (1 Bft)
18.05.2011 19:10 26,6 C 18,4 C 24,4 C 27,7 C 27,7 C 1,1 C 40 % 50 % 29 % 1015,4 hPa 0,0 l/m 2,6 km/h (1 Bft) N 0 0 min 0,1 UV-I 11,9 C 27,7 C 0,0 km/h (0 Bft)
18.05.2011 19:15 26,7 C 18,4 C 24,7 C 27,9 C 27,9 C 1,2 C 40 % 50 % 32 % 1015,6 hPa 0,0 l/m 1,8 km/h (1 Bft) S 180 0 min 0,1 UV-I 12,0 C 27,9 C 3,1 km/h (1 Bft)
18.05.2011 19:20 26,7 C 18,4 C 24,7 C 27,9 C 27,9 C 1,2 C 40 % 50 % 32 % 1015,6 hPa 0,0 l/m 1,1 km/h (1 Bft) O-NO 67 0 min 0,1 UV-I 12,0 C 27,9 C 0,0 km/h (0 Bft)
18.05.2011 19:25 26,5 C 18,4 C 24,3 C 27,7 C 27,7 C 1,2 C 42 % 51 % 32 % 1015,6 hPa 0,0 l/m 1,8 km/h (1 Bft) SW 225 0 min 0,0 UV-I 12,5 C 27,7 C 2,4 km/h (1 Bft)
18.05.2011 19:30 26,5 C 18,4 C 24,1 C 27,5 C 27,5 C 1,0 C 43 % 50 % 26 % 1015,6 hPa 0,0 l/m 1,6 km/h (1 Bft) S-SO 157 0 min 0,0 UV-I 12,9 C 27,5 C 2,7 km/h (1 Bft)
18.05.2011 19:35 26,0 C 18,4 C 23,5 C 27,3 C 27,3 C 1,3 C 43 % 51 % 34 % 1015,4 hPa 0,0 l/m 0,6 km/h (0 Bft) W-NW 292 0 min 0,0 UV-I 12,4 C 27,3 C 0,0 km/h (0 Bft)
18.05.2011 19:40 25,7 C 18,4 C 23,1 C 27,1 C 27,1 C 1,4 C 43 % 52 % 37 % 1015,4 hPa 0,0 l/m 0,3 km/h (0 Bft) O-NO 67 0 min 0,0 UV-I 12,2 C 27,1 C 0,0 km/h (0 Bft)
18.05.2011 19:45 25,5 C 18,4 C 22,5 C 26,6 C 26,6 C 1,1 C 43 % 54 % 29 % 1015,4 hPa 0,0 l/m 0,0 km/h (0 Bft) S 180 0 min 0,0 UV-I 12,0 C 26,6 C 0,0 km/h (0 Bft)
18.05.2011 19:50 25,3 C 18,4 C 22,3 C 26,1 C 26,1 C 0,8 C 43 % 55 % 21 % 1015,4 hPa 0,0 l/m 0,0 km/h (0 Bft) W-SW 247 0 min 0,0 UV-I 11,8 C 26,1 C 0,0 km/h (0 Bft)
18.05.2011 19:55 24,8 C 18,4 C 21,8 C 25,2 C 25,2 C 0,4 C 44 % 56 % 11 % 1014,8 hPa 0,0 l/m 0,0 km/h (0 Bft) W-SW 247 0 min 0,0 UV-I 11,7 C 25,2 C 0,0 km/h (0 Bft)
18.05.2011 20:00 24,7 C 18,4 C 21,6 C 24,7 C 24,7 C 0,0 C 47 % 59 % 0 % 1014,8 hPa 0,0 l/m 0,0 km/h (0 Bft) W-SW 247 0 min 0,0 UV-I 12,6 C 24,7 C 0,0 km/h (0 Bft)
18.05.2011 20:10 24,1 C 18,4 C 21,2 C 23,7 C 23,0 C 0,0 C 47 % 59 % 0 % 1014,8 hPa 0,0 l/m 0,0 km/h (0 Bft) N 0 0 min 0,0 UV-I 12,1 C 23,0 C 0,0 km/h (0 Bft)
18.05.2011 20:15 23,6 C 18,4 C 20,8 C 23,1 C 22,0 C 0,0 C 50 % 62 % 0 % 1015,1 hPa 0,0 l/m 0,0 km/h (0 Bft) O-NO 67 0 min 0,0 UV-I 12,6 C 22,0 C 0,0 km/h (0 Bft)
18.05.2011 20:20 23,5 C 18,4 C 20,7 C 22,8 C 21,5 C 0,0 C 50 % 61 % 0 % 1015,1 hPa 0,0 l/m 0,0 km/h (0 Bft) O-NO 67 0 min 0,0 UV-I 12,5 C 21,5 C 0,0 km/h (0 Bft)
18.05.2011 20:25 23,1 C 18,4 C 20,3 C 22,3 C 20,7 C 0,0 C 53 % 62 % 0 % 1015,1 hPa 0,0 l/m 0,0 km/h (0 Bft) O-NO 67 0 min 0,0 UV-I 13,0 C 20,7 C 0,0 km/h (0 Bft)
18.05.2011 20:30 22,9 C 18,4 C 20,1 C 22,0 C 20,2 C 0,0 C 52 % 63 % 0 % 1015,1 hPa 0,0 l/m 0,0 km/h (0 Bft) O-NO 67 0 min 0,0 UV-I 12,5 C 20,2 C 0,0 km/h (0 Bft)
18.05.2011 20:35 22,4 C 18,4 C 19,9 C 21,5 C 19,7 C 0,0 C 53 % 63 % 0 % 1015,2 hPa 0,0 l/m 0,0 km/h (0 Bft) O-NO 67 0 min 0,0 UV-I 12,3 C 19,7 C 0,0 km/h (0 Bft)
18.05.2011 20:40 22,3 C 18,4 C 19,7 C 21,3 C 19,3 C 0,0 C 56 % 65 % 0 % 1015,2 hPa 0,0 l/m 0,0 km/h (0 Bft) O-NO 67 0 min 0,0 UV-I 13,1 C 19,3 C 0,0 km/h (0 Bft)
18.05.2011 20:45 22,2 C 18,4 C 19,5 C 21,0 C 18,6 C 0,0 C 57 % 67 % 0 % 1015,2 hPa 0,0 l/m 0,0 km/h (0 Bft) O-NO 67 0 min 0,0 UV-I 13,3 C 18,6 C 0,0 km/h (0 Bft)
18.05.2011 20:50 22,0 C 18,4 C 19,3 C 20,7 C 18,2 C 0,0 C 58 % 68 % 0 % 1015,2 hPa 0,0 l/m 0,0 km/h (0 Bft) O-NO 67 0 min 0,0 UV-I 13,3 C 18,2 C 0,0 km/h (0 Bft)
18.05.2011 20:55 21,9 C 18,4 C 19,1 C 20,5 C 17,7 C 0,0 C 59 % 69 % 0 % 1015,4 hPa 0,0 l/m 0,0 km/h (0 Bft) W 270 0 min 0,0 UV-I 13,5 C 17,7 C 0,0 km/h (0 Bft)
18.05.2011 21:00 21,6 C 18,9 C 18,9 C 20,2 C 17,3 C 0,0 C 61 % 70 % 0 % 1015,4 hPa 0,0 l/m 0,0 km/h (0 Bft) SW 225 0 min 0,0 UV-I 13,7 C 17,3 C 0,0 km/h (0 Bft)
18.05.2011 21:10 21,1 C 18,9 C 18,4 C 19,6 C 16,5 C 0,0 C 61 % 72 % 0 % 1015,4 hPa 0,0 l/m 0,0 km/h (0 Bft) N 0 0 min 0,0 UV-I 13,3 C 16,5 C 0,0 km/h (0 Bft)
18.05.2011 21:15 20,9 C 18,9 C 18,1 C 19,3 C 16,1 C 0,0 C 63 % 73 % 0 % 1014,8 hPa 0,0 l/m 0,0 km/h (0 Bft) SW 225 0 min 0,0 UV-I 13,6 C 16,1 C 0,0 km/h (0 Bft)
18.05.2011 21:20 20,8 C 18,8 C 18,1 C 19,2 C 15,9 C 0,0 C 63 % 74 % 0 % 1014,8 hPa 0,0 l/m 0,0 km/h (0 Bft) W-SW 247 0 min 0,0 UV-I 13,5 C 15,9 C 0,0 km/h (0 Bft)
18.05.2011 21:25 20,4 C 18,8 C 17,7 C 18,8 C 15,5 C 0,0 C 64 % 74 % 0 % 1014,8 hPa 0,0 l/m 0,0 km/h (0 Bft) W-SW 247 0 min 0,0 UV-I 13,4 C 15,5 C 0,0 km/h (0 Bft)
18.05.2011 21:30 20,3 C 18,8 C 17,7 C 18,6 C 15,3 C 0,0 C 65 % 76 % 0 % 1014,8 hPa 0,0 l/m 0,0 km/h (0 Bft) SW 225 0 min 0,0 UV-I 13,5 C 15,3 C 0,0 km/h (0 Bft)
18.05.2011 21:35 20,3 C 18,8 C 17,5 C 18,6 C 15,1 C 0,0 C 65 % 76 % 0 % 1015,2 hPa 0,0 l/m 0,0 km/h (0 Bft) SW 225 0 min 0,0 UV-I 13,5 C 15,1 C 0,0 km/h (0 Bft)
18.05.2011 21:40 19,9 C 18,8 C 17,5 C 18,2 C 14,9 C 0,0 C 64 % 76 % 0 % 1015,2 hPa 0,0 l/m 0,0 km/h (0 Bft) O-NO 67 0 min 0,0 UV-I 12,9 C 14,9 C 0,0 km/h (0 Bft)
18.05.2011 21:45 19,2 C 18,8 C 16,7 C 17,8 C 14,9 C 0,0 C 65 % 75 % 0 % 1015,2 hPa 0,0 l/m 0,0 km/h (0 Bft) O-NO 67 0 min 0,0 UV-I 12,5 C 14,9 C 0,0 km/h (0 Bft)
18.05.2011 21:50 19,0 C 18,8 C 16,7 C 17,6 C 14,7 C 0,0 C 67 % 75 % 0 % 1015,2 hPa 0,0 l/m 0,0 km/h (0 Bft) O-NO 67 0 min 0,0 UV-I 12,7 C 14,7 C 0,0 km/h (0 Bft)
18.05.2011 21:55 19,1 C 18,8 C 16,5 C 17,5 C 14,4 C 0,0 C 68 % 77 % 0 % 1015,5 hPa 0,0 l/m 0,0 km/h (0 Bft) W 270 0 min 0,0 UV-I 13,1 C 14,4 C 0,0 km/h (0 Bft)
18.05.2011 22:00 19,0 C 18,8 C 16,5 C 17,4 C 14,2 C 0,0 C 68 % 77 % 0 % 1015,5 hPa 0,0 l/m 0,0 km/h (0 Bft) W 270 0 min 0,0 UV-I 13,0 C 14,2 C 0,0 km/h (0 Bft)
18.05.2011 22:10 18,8 C 18,8 C 16,3 C 17,2 C 14,1 C 0,0 C 68 % 79 % 0 % 1015,5 hPa 0,0 l/m 0,0 km/h (0 Bft) N 0 0 min 0,0 UV-I 12,8 C 14,1 C 0,0 km/h (0 Bft)
18.05.2011 22:15 18,7 C 18,8 C 16,1 C 17,1 C 14,0 C 0,0 C 69 % 79 % 0 % 1015,9 hPa 0,0 l/m 0,0 km/h (0 Bft) W 270 0 min 0,0 UV-I 12,9 C 14,0 C 0,0 km/h (0 Bft)
18.05.2011 22:20 18,7 C 18,8 C 16,1 C 17,1 C 13,9 C 0,0 C 69 % 79 % 0 % 1015,9 hPa 0,0 l/m 0,0 km/h (0 Bft) SW 225 0 min 0,0 UV-I 12,9 C 13,9 C 0,0 km/h (0 Bft)
18.05.2011 22:25 18,5 C 18,8 C 16,1 C 16,9 C 13,8 C 0,0 C 69 % 79 % 0 % 1015,9 hPa 0,0 l/m 0,0 km/h (0 Bft) SW 225 0 min 0,0 UV-I 12,7 C 13,8 C 0,0 km/h (0 Bft)
18.05.2011 22:30 18,3 C 18,8 C 16,1 C 16,8 C 13,8 C 0,0 C 70 % 79 % 0 % 1015,9 hPa 0,0 l/m 0,0 km/h (0 Bft) SW 225 0 min 0,0 UV-I 12,7 C 13,8 C 0,0 km/h (0 Bft)
18.05.2011 22:35 18,3 C 18,8 C 16,1 C 16,7 C 13,6 C 0,0 C 71 % 79 % 0 % 1014,9 hPa 0,0 l/m 0,0 km/h (0 Bft) SW 225 0 min 0,0 UV-I 12,9 C 13,6 C 0,0 km/h (0 Bft)
18.05.2011 22:40 18,1 C 18,8 C 16,1 C 16,6 C 13,6 C 0,0 C 70 % 79 % 0 % 1014,9 hPa 0,0 l/m 0,0 km/h (0 Bft) W-SW 247 0 min 0,0 UV-I 12,5 C 13,6 C 0,0 km/h (0 Bft)
18.05.2011 22:45 17,8 C 18,8 C 16,1 C 16,4 C 13,6 C 0,0 C 70 % 79 % 0 % 1014,9 hPa 0,0 l/m 0,0 km/h (0 Bft) NO 45 0 min 0,0 UV-I 12,3 C 13,6 C 0,0 km/h (0 Bft)
18.05.2011 22:50 17,5 C 18,8 C 15,2 C 16,2 C 13,6 C 0,0 C 71 % 81 % 0 % 1014,9 hPa 0,0 l/m 0,0 km/h (0 Bft) NO 45 0 min 0,0 UV-I 12,2 C 13,6 C 0,0 km/h (0 Bft)
18.05.2011 22:55 17,6 C 18,8 C 15,1 C 16,3 C 13,6 C 0,0 C 73 % 83 % 0 % 1015,3 hPa 0,0 l/m 0,0 km/h (0 Bft) W-SW 247 0 min 0,0 UV-I 12,7 C 13,6 C 0,0 km/h (0 Bft)
18.05.2011 23:00 17,7 C 18,8 C 15,1 C 16,3 C 13,6 C 0,0 C 73 % 83 % 0 % 1015,3 hPa 0,0 l/m 0,0 km/h (0 Bft) SW 225 0 min 0,0 UV-I 12,8 C 13,6 C 0,0 km/h (0 Bft)
18.05.2011 23:10 17,5 C 18,8 C 15,0 C 16,1 C 13,4 C 0,0 C 72 % 83 % 0 % 1015,3 hPa 0,0 l/m 0,0 km/h (0 Bft) N 0 0 min 0,0 UV-I 12,4 C 13,4 C 0,0 km/h (0 Bft)
18.05.2011 23:15 17,3 C 18,8 C 14,8 C 15,9 C 13,2 C 0,0 C 72 % 84 % 0 % 1015,4 hPa 0,0 l/m 0,0 km/h (0 Bft) N-NW 337 0 min 0,0 UV-I 12,2 C 13,2 C 0,0 km/h (0 Bft)
18.05.2011 23:20 17,2 C 18,9 C 14,7 C 15,8 C 13,1 C 0,0 C 72 % 83 % 0 % 1015,4 hPa 0,0 l/m 0,0 km/h (0 Bft) NW 315 0 min 0,0 UV-I 12,1 C 13,1 C 0,0 km/h (0 Bft)
18.05.2011 23:25 17,1 C 18,8 C 14,7 C 15,7 C 12,8 C 0,0 C 72 % 83 % 0 % 1015,4 hPa 0,0 l/m 0,0 km/h (0 Bft) W 270 0 min 0,0 UV-I 12,0 C 12,8 C 0,0 km/h (0 Bft)
18.05.2011 23:30 16,9 C 18,8 C 14,5 C 15,5 C 12,8 C 0,0 C 72 % 83 % 0 % 1015,4 hPa 0,0 l/m 0,0 km/h (0 Bft) O-NO 67 0 min 0,0 UV-I 11,8 C 12,8 C 0,0 km/h (0 Bft)
18.05.2011 23:35 16,6 C 18,8 C 14,5 C 15,3 C 12,8 C 0,0 C 73 % 83 % 0 % 1015,4 hPa 0,0 l/m 0,0 km/h (0 Bft) O-NO 67 0 min 0,0 UV-I 11,7 C 12,8 C 0,0 km/h (0 Bft)
18.05.2011 23:40 16,5 C 18,8 C 14,3 C 15,3 C 12,8 C 0,0 C 73 % 83 % 0 % 1015,4 hPa 0,0 l/m 0,0 km/h (0 Bft) O-NO 67 0 min 0,0 UV-I 11,6 C 12,8 C 0,0 km/h (0 Bft)
18.05.2011 23:45 16,5 C 18,8 C 14,3 C 15,2 C 12,5 C 0,0 C 74 % 84 % 0 % 1015,4 hPa 0,0 l/m 0,2 km/h (0 Bft) SW 225 0 min 0,0 UV-I 11,8 C 12,5 C 2,4 km/h (1 Bft)
18.05.2011 23:50 16,5 C 18,8 C 14,3 C 15,1 C 12,4 C 0,0 C 74 % 84 % 0 % 1015,4 hPa 0,0 l/m 0,2 km/h (0 Bft) S 180 0 min 0,0 UV-I 11,8 C 12,4 C 0,0 km/h (0 Bft)
18.05.2011 23:55 16,4 C 18,7 C 14,1 C 15,0 C 12,2 C 0,0 C 74 % 85 % 0 % 1015,4 hPa 0,0 l/m 0,2 km/h (0 Bft) SW 225 0 min 0,0 UV-I 11,8 C 12,2 C 0,0 km/h (0 Bft)
_ Min-Zeit 05:10 08:45 06:20 05:50 05:40 00:00 17:50 15:40 00:00 19:55 - 00:00 - - - 00:00 05:10 05:40 00:00
Minimum _ 10,4 C 16,0 C 9,2 C 9,5 C 7,7 C 0,0 C 37 % 36 % 0 % 1014,8 hPa - 0,0 km/h (0 Bft) - - - 0,0 UV-I 8,0 C 7,7 C 0,0 km/h (0 Bft)
_ Max-Zeit 18:10 21:00 15:25 18:20 18:20 09:45 05:25 07:45 08:00 00:00 00:30 12:00 - - 08:10 13:35 21:00 18:20 13:15
Maximum _ 26,9 C 18,9 C 28,1 C 30,2 C 30,2 C 8,4 C 87 % 94 % 100 % 1020,2 hPa 0,7 l/m 7,6 km/h
S-SW (2 Bft)
- - 10 min 4,0 UV-I 13,7 C 30,2 C 20,9 km/h
W-SW (4 Bft)
Durchschnitt _ 18,6 C 17,3 C 18,5 C 20,3 C 19,3 C 2,1 C 65 % 70 % 45 % 1017,3 hPa #0,7 l/m 1,8 km/h (1 Bft) SW - #9:00 h 1,6 UV-I 11,1 C 19,3 C 2,7 km/h (1 Bft)
2013 www.wetterstation-wechselburg.de